When you browse on this site, cookies collect data to enhance your experience and personalize the content and advertising you see.
Visit our Privacy Policy to learn more. By continuing to use the site, you agree to this use of cookies and data.
EN

Hourly Weather Galata

Today, 13 July, Monday

Time Temperature Precipitation Wind Pressure Humidity
00:00 +20°C° 0 mm 6 mps 754 mmHg 72%
01:00 +18°C° 0 mm 7 mps 754 mmHg 78%
02:00 +16°C° 0 mm 8 mps 754 mmHg 83%
03:00 +16°C° 0 mm 8 mps 754 mmHg 82%
04:00 +16°C° 0 mm 8 mps 754 mmHg 81%
05:00 +15°C° 0 mm 8 mps 754 mmHg 80%
06:00 +16°C° 0 mm 8 mps 755 mmHg 79%
07:00 +16°C° 0 mm 8 mps 755 mmHg 79%
08:00 +16°C° 0 mm 8 mps 755 mmHg 78%
09:00 +16°C° 0 mm 8 mps 755 mmHg 76%
10:00 +16°C° 0 mm 8 mps 755 mmHg 74%
11:00 +17°C° 0 mm 7 mps 756 mmHg 71%
12:00 +17°C° 0 mm 7 mps 756 mmHg 68%
13:00 +18°C° 0 mm 7 mps 756 mmHg 65%
14:00 +18°C° 0 mm 7 mps 756 mmHg 62%
15:00 +20°C° 0 mm 7 mps 755 mmHg 60%
16:00 +20°C° 0 mm 6 mps 755 mmHg 59%
17:00 +21°C° 0 mm 6 mps 755 mmHg 58%
18:00 +20°C° 0 mm 5 mps 755 mmHg 62%
19:00 +19°C° 0 mm 5 mps 755 mmHg 66%
20:00 +17°C° 0 mm 5 mps 755 mmHg 70%
21:00 +16°C° 0 mm 5 mps 755 mmHg 74%
22:00 +15°C° 0 mm 5 mps 755 mmHg 78%
23:00 +14°C° 0 mm 5 mps 756 mmHg 82%

Tomorrow, 14 July, Tuesday

Time Temperature Precipitation Wind Pressure Humidity
00:00 +14°C° 0 mm 5 mps 756 mmHg 85%
01:00 +13°C° 0 mm 5 mps 756 mmHg 88%
02:00 +13°C° 0 mm 5 mps 756 mmHg 91%
03:00 +13°C° 0 mm 5 mps 756 mmHg 91%
04:00 +12°C° 0 mm 5 mps 756 mmHg 90%
05:00 +12°C° 0 mm 5 mps 756 mmHg 90%
06:00 +14°C° 0 mm 5 mps 756 mmHg 79%
07:00 +18°C° 0 mm 4 mps 756 mmHg 68%
08:00 +20°C° 0 mm 4 mps 756 mmHg 58%
09:00 +21°C° 0 mm 4 mps 756 mmHg 51%
10:00 +23°C° 0 mm 4 mps 756 mmHg 45%
11:00 +25°C° 0 mm 4 mps 756 mmHg 39%
12:00 +26°C° 0 mm 4 mps 756 mmHg 39%
13:00 +26°C° 0 mm 4 mps 755 mmHg 38%
14:00 +27°C° 0 mm 4 mps 755 mmHg 38%
15:00 +26°C° 0 mm 4 mps 755 mmHg 41%
16:00 +25°C° 0 mm 4 mps 755 mmHg 45%
17:00 +25°C° 0 mm 4 mps 755 mmHg 49%
18:00 +22°C° 0 mm 3 mps 755 mmHg 54%
19:00 +20°C° 0 mm 2 mps 755 mmHg 60%
20:00 +19°C° 0 mm 2 mps 755 mmHg 66%
21:00 +18°C° 0 mm 2 mps 755 mmHg 68%
22:00 +17°C° 0 mm 2 mps 755 mmHg 71%
23:00 +18°C° 0 mm 1 mps 755 mmHg 73%

Day after tomorrow, 15 July, Wednesday

Time Temperature Precipitation Wind Pressure Humidity
00:00 +16°C° 0 mm 2 mps 756 mmHg 74%
01:00 +16°C° 0 mm 2 mps 756 mmHg 74%
02:00 +16°C° 0 mm 2 mps 756 mmHg 75%
03:00 +16°C° 0 mm 2 mps 755 mmHg 75%
04:00 +16°C° 0 mm 2 mps 755 mmHg 75%
05:00 +16°C° 0 mm 3 mps 755 mmHg 75%
06:00 +18°C° 0 mm 2 mps 756 mmHg 68%
07:00 +20°C° 0 mm 2 mps 756 mmHg 60%
08:00 +23°C° 0 mm 2 mps 756 mmHg 53%
09:00 +24°C° 0 mm 3 mps 756 mmHg 50%
10:00 +26°C° 0 mm 3 mps 756 mmHg 46%
11:00 +27°C° 0 mm 3 mps 756 mmHg 43%
12:00 +27°C° 0 mm 4 mps 756 mmHg 44%
13:00 +27°C° 0 mm 4 mps 755 mmHg 45%
14:00 +27°C° 0 mm 4 mps 755 mmHg 45%
15:00 +27°C° 0 mm 4 mps 755 mmHg 47%
16:00 +27°C° 0 mm 4 mps 755 mmHg 48%
17:00 +26°C° 0 mm 4 mps 755 mmHg 49%
18:00 +25°C° 0 mm 3 mps 755 mmHg 54%
19:00 +22°C° 0 mm 3 mps 755 mmHg 59%
20:00 +20°C° 0 mm 3 mps 755 mmHg 64%
21:00 +19°C° 0 mm 2 mps 755 mmHg 66%
22:00 +19°C° 0 mm 2 mps 755 mmHg 67%
23:00 +19°C° 0 mm 1 mps 755 mmHg 69%

16 July, Thursday

Time Temperature Precipitation Wind Pressure Humidity
00:00 +19°C° 0 mm 1 mps 755 mmHg 70%
01:00 +18°C° 0 mm 1 mps 755 mmHg 71%
02:00 +18°C° 0 mm 1 mps 755 mmHg 72%
03:00 +18°C° 0 mm 1 mps 754 mmHg 73%
04:00 +18°C° 0 mm 1 mps 754 mmHg 74%
05:00 +17°C° 0 mm 2 mps 754 mmHg 74%
06:00 +19°C° 0 mm 2 mps 754 mmHg 67%
07:00 +21°C° 0 mm 2 mps 754 mmHg 59%
08:00 +24°C° 0 mm 2 mps 754 mmHg 52%
09:00 +26°C° 0 mm 2 mps 754 mmHg 48%
10:00 +27°C° 0 mm 3 mps 754 mmHg 44%
11:00 +28°C° 0 mm 3 mps 754 mmHg 40%
12:00 +28°C° 0 mm 3 mps 754 mmHg 39%
13:00 +28°C° 0 mm 4 mps 753 mmHg 39%
14:00 +29°C° 0 mm 4 mps 753 mmHg 38%
15:00 +28°C° 0 mm 4 mps 753 mmHg 40%
16:00 +27°C° 0 mm 4 mps 753 mmHg 42%
17:00 +27°C° 0 mm 4 mps 752 mmHg 44%
18:00 +25°C° 0 mm 4 mps 752 mmHg 50%
19:00 +22°C° 0 mm 3 mps 753 mmHg 55%
20:00 +20°C° 0 mm 3 mps 753 mmHg 60%
21:00 +19°C° 0 mm 3 mps 753 mmHg 63%
22:00 +19°C° 0 mm 2 mps 753 mmHg 66%
23:00 +18°C° 0 mm 2 mps 753 mmHg 69%

17 July, Friday

Time Temperature Precipitation Wind Pressure Humidity
00:00 +18°C° 0 mm 2 mps 753 mmHg 72%
01:00 +17°C° 0 mm 2 mps 753 mmHg 75%
02:00 +18°C° 0 mm 1 mps 752 mmHg 78%
03:00 +17°C° 0 mm 2 mps 752 mmHg 79%
04:00 +17°C° 0 mm 2 mps 752 mmHg 80%
05:00 +17°C° 0 mm 2 mps 752 mmHg 80%
06:00 +19°C° 0 mm 2 mps 752 mmHg 73%
07:00 +21°C° 0 mm 2 mps 752 mmHg 66%
08:00 +25°C° 0 mm 3 mps 753 mmHg 59%
09:00 +26°C° 0 mm 3 mps 753 mmHg 54%
10:00 +27°C° 0 mm 4 mps 753 mmHg 49%
11:00 +29°C° 0 mm 4 mps 753 mmHg 43%
12:00 +29°C° 0 mm 5 mps 752 mmHg 42%
13:00 +29°C° 0 mm 5 mps 752 mmHg 40%
14:00 +30°C° 0 mm 5 mps 752 mmHg 38%
15:00 +29°C° 0 mm 5 mps 752 mmHg 42%
16:00 +29°C° 0 mm 5 mps 752 mmHg 45%
17:00 +28°C° 0 mm 5 mps 752 mmHg 49%
18:00 +26°C° 0 mm 5 mps 752 mmHg 58%
19:00 +23°C° 0 mm 4 mps 752 mmHg 67%
20:00 +22°C° 0 mm 4 mps 752 mmHg 76%
21:00 +21°C° 0 mm 4 mps 752 mmHg 78%
22:00 +20°C° 0 mm 4 mps 752 mmHg 81%
23:00 +20°C° 0 mm 4 mps 753 mmHg 83%

18 July, Saturday

Time Temperature Precipitation Wind Pressure Humidity
00:00 +19°C° 0 mm 3 mps 753 mmHg 84%
01:00 +19°C° 0 mm 3 mps 753 mmHg 85%
02:00 +19°C° 0 mm 3 mps 752 mmHg 86%
03:00 +19°C° 0 mm 3 mps 752 mmHg 87%
04:00 +18°C° 0 mm 3 mps 752 mmHg 88%
05:00 +18°C° 0 mm 3 mps 753 mmHg 89%
06:00 +20°C° 0 mm 3 mps 753 mmHg 78%
07:00 +23°C° 0 mm 4 mps 753 mmHg 68%
08:00 +26°C° 0 mm 4 mps 753 mmHg 58%
09:00 +28°C° 0 mm 5 mps 753 mmHg 53%
10:00 +29°C° 0 mm 5 mps 753 mmHg 48%
11:00 +30°C° 0 mm 6 mps 753 mmHg 43%
12:00 +32°C° 0 mm 6 mps 752 mmHg 42%
13:00 +32°C° 0 mm 6 mps 752 mmHg 41%
14:00 +32°C° 0 mm 6 mps 752 mmHg 39%
15:00 +30°C° 0 mm 6 mps 752 mmHg 42%
16:00 +30°C° 0 mm 6 mps 751 mmHg 46%
17:00 +29°C° 0 mm 6 mps 751 mmHg 49%
18:00 +27°C° 0 mm 5 mps 751 mmHg 59%
19:00 +25°C° 0 mm 5 mps 751 mmHg 69%
20:00 +22°C° 0 mm 4 mps 751 mmHg 79%
21:00 +22°C° 0 mm 4 mps 751 mmHg 81%
22:00 +21°C° 0 mm 4 mps 751 mmHg 83%
23:00 +20°C° 0 mm 4 mps 751 mmHg 86%
Show more